IU1JVO-13 Weather Reports


Display with metric or nautical units.
time (UTC)temp
F
wind
direction
speed
MPH
gust
MPH
rain 1hr
in
rain 24hr
in
rain mn
in
humidity
%
barometer
mb
20260902063059 67 278 1.0 3.0 0.00 0.00 0.00 44 1022.4
20260902062557 67 276 0.0 3.0 0.00 0.00 0.00 46 1022.4
20260902062513 67 274 0.0 3.0 0.00 0.00 0.00 46 1022.4
20260902062329 67 259 0.0 3.0 0.00 0.00 0.00 43 1022.3
20260902061557 67 267 0.0 3.0 0.00 0.00 0.00 44 1022.4
20260902061512 67 270 0.0 3.0 0.00 0.00 0.00 44 1022.4
20260902061055 67 296 0.0 3.0 0.00 0.00 0.00 43 1022.3
20260902060556 67 305 1.0 3.0 0.00 0.00 0.00 46 1022.1
20260902060514 67 303 0.0 3.0 0.00 0.00 0.00 46 1022.1
20260902060055 66 301 0.0 3.0 0.00 0.00 0.00 47 1022.3
20260902055555 65 311 0.0 3.0 0.00 0.00 0.00 48 1022.0
20260902055513 65 310 0.0 3.0 0.00 0.00 0.00 48 1021.9
20260902055329 64 248 0.0 4.0 0.00 0.00 0.00 52 1021.9
20260902054827 65 282 1.0 4.0 0.00 0.00 0.00 50 1022.0
20260902054513 65 299 1.0 4.0 0.00 0.00 0.00 50 1022.0
20260902054059 65 345 1.0 4.0 0.00 0.00 0.00 47 1022.0
20260902053557 64 284 2.0 5.0 0.00 0.00 0.00 48 1022.0
20260902053512 64 284 2.0 5.0 0.00 0.00 0.00 49 1021.9
20260902053058 65 301 1.0 5.0 0.00 0.00 0.00 50 1022.0
20260902052557 66 323 1.0 5.0 0.00 0.00 0.00 44 1022.1
20260902052514 66 319 1.0 5.0 0.00 0.00 0.00 44 1022.1
20260902052056 65 285 1.0 5.0 0.00 0.00 0.00 45 1022.0
20260902051556 65 280 1.0 4.0 0.00 0.00 0.00 47 1021.9
20260902051512 65 282 1.0 4.0 0.00 0.00 0.00 47 1021.8
20260902051055 65 274 1.0 4.0 0.00 0.00 0.00 49 1021.8
20260902050556 65 272 1.0 4.0 0.00 0.00 0.00 46 1021.9
20260902050513 65 271 1.0 4.0 0.00 0.00 0.00 46 1021.9
20260902050056 66 300 2.0 4.0 0.00 0.00 0.00 45 1022.0
20260902045555 66 324 1.0 4.0 0.00 0.00 0.00 43 1021.9
20260902045512 66 324 2.0 4.0 0.00 0.00 0.00 43 1021.9
20260902045326 66 319 1.0 3.0 0.00 0.00 0.00 44 1022.0
20260902044554 66 325 1.0 3.0 0.00 0.00 0.00 46 1021.9
20260902044512 65 328 1.0 3.0 0.00 0.00 0.00 46 1022.0
20260902044054 65 328 1.0 3.0 0.00 0.00 0.00 47 1021.9
20260902043551 65 331 1.0 3.0 0.00 0.00 0.00 46 1022.0
20260902043512 65 330 1.0 3.0 0.00 0.00 0.00 47 1022.0
20260902043051 65 318 1.0 3.0 0.00 0.00 0.00 48 1022.0
20260902042557 65 291 1.0 3.0 0.00 0.00 0.00 49 1021.9
20260902042513 64 287 1.0 3.0 0.00 0.00 0.00 49 1021.9
20260902042052 64 268 1.0 4.0 0.00 0.00 0.00 50 1021.9
20260902041552 64 297 1.0 6.0 0.00 0.00 0.00 52 1021.8
20260902041512 65 302 1.0 6.0 0.00 0.00 0.00 51 1021.9
20260902041051 66 323 1.0 6.0 0.00 0.00 0.00 46 1022.1
20260902040550 65 286 1.0 6.0 0.00 0.00 0.00 47 1022.0
20260902040510 65 279 1.0 6.0 0.00 0.00 0.00 47 1022.0
20260902040049 65 283 1.0 6.0 0.00 0.00 0.00 49 1022.0
20260902035550 66 298 1.0 3.0 0.00 0.00 0.00 48 1022.1
20260902035512 66 305 1.0 3.0 0.00 0.00 0.00 47 1022.1
20260902035050 65 301 1.0 5.0 0.00 0.00 0.00 49 1022.0
20260902034546 66 315 1.0 5.0 0.00 0.00 0.00 46 1022.1
20260902034510 66 314 1.0 5.0 0.00 0.00 0.00 46 1022.1
20260902034045 66 299 1.0 5.0 0.00 0.00 0.00 47 1022.3
20260902033546 66 277 1.0 5.0 0.00 0.00 0.00 47 1022.3
20260902033509 65 274 1.0 5.0 0.00 0.00 0.00 47 1022.1
20260902033324 65 264 0.0 4.0 0.00 0.00 0.00 48 1022.1
20260902032544 66 257 0.0 4.0 0.00 0.00 0.00 48 1022.1
20260902032508 66 257 0.0 4.0 0.00 0.00 0.00 47 1022.1
20260902032319 66 265 1.0 4.0 0.00 0.00 0.00 48 1022.0
20260902031813 67 294 1.0 4.0 0.00 0.00 0.00 46 1022.0
20260902031508 67 299 1.0 4.0 0.00 0.00 0.00 46 1021.9
20260902031041 67 314 1.0 5.0 0.00 0.00 0.00 47 1021.9
20260902030812 67 306 2.0 5.0 0.00 0.00 0.00 48 1021.9
20260902030507 67 302 2.0 5.0 0.00 0.00 0.00 49 1021.9
20260902030041 67 297 2.0 5.0 0.00 0.00 0.00 50 1021.9
20260902025541 66 294 2.0 5.0 0.00 0.00 0.00 50 1021.9
20260902025507 66 291 2.0 5.0 0.00 0.00 0.00 50 1021.9
20260902025312 66 305 1.0 5.0 0.00 0.00 0.00 52 1021.9
20260902024542 65 289 0.0 5.0 0.00 0.00 0.00 54 1021.9
20260902024507 65 290 0.0 5.0 0.00 0.00 0.00 53 1021.9
20260902024043 65 280 0.0 6.0 0.00 0.00 0.00 52 1022.4
20260902023541 65 287 1.0 7.0 0.00 0.00 0.00 53 1022.4
20260902023507 65 285 1.0 7.0 0.00 0.00 0.00 53 1022.4
20260902023041 65 275 2.0 7.0 0.00 0.00 0.00 53 1022.5
20260902022541 67 276 2.0 7.0 0.00 0.00 0.00 48 1022.5
20260902022507 67 280 3.0 7.0 0.00 0.00 0.00 48 1022.5
20260902022041 67 283 3.0 7.0 0.00 0.00 0.00 48 1022.6
20260902021541 67 282 3.0 6.0 0.00 0.00 0.00 50 1022.5
20260902021509 67 283 3.0 6.0 0.00 0.00 0.00 51 1022.5
20260902021314 67 287 2.0 5.0 0.00 0.00 0.00 52 1022.5
20260902020542 67 283 2.0 5.0 0.00 0.00 0.00 52 1022.5
20260902020507 67 281 2.0 5.0 0.00 0.00 0.00 52 1022.5
20260902020041 67 279 3.0 5.0 0.00 0.00 0.00 53 1022.5
20260902015541 67 281 3.0 5.0 0.00 0.00 0.00 53 1022.4
20260902015507 67 280 3.0 5.0 0.00 0.00 0.00 53 1022.4
20260902015041 67 287 2.0 5.0 0.00 0.00 0.00 53 1022.4
20260902014815 67 280 2.0 6.0 0.00 0.00 0.00 51 1022.5
20260902014506 67 282 2.0 6.0 0.00 0.00 0.00 51 1022.5
20260902014039 67 277 2.0 7.0 0.00 0.00 0.00 53 1022.8
20260902013540 67 296 2.0 7.0 0.00 0.00 0.00 51 1022.7
20260902013508 67 293 2.0 7.0 0.00 0.00 0.00 51 1022.7
20260902013038 68 293 2.0 7.0 0.00 0.00 0.00 51 1022.8
20260902012508 67 289 3.0 7.0 0.00 0.00 0.00 52 1022.8
20260902012038 67 286 3.0 7.0 0.00 0.00 0.00 53 1022.8
20260902011538 67 286 3.0 7.0 0.00 0.00 0.00 53 1022.8
20260902011507 67 285 2.0 6.0 0.00 0.00 0.00 53 1022.8
20260902011038 67 287 2.0 6.0 0.00 0.00 0.00 53 1022.9
20260902010537 67 286 2.0 6.0 0.00 0.00 0.00 54 1022.8
20260902010507 67 287 2.0 6.0 0.00 0.00 0.00 54 1022.8
20260902010036 67 283 2.0 6.0 0.00 0.00 0.00 54 1022.9
20260902005805 68 284 2.0 6.0 0.00 0.00 0.00 54 1022.8
20260902005507 68 284 2.0 6.0 0.00 0.00 0.00 54 1022.8
20260902005313 68 286 3.0 6.0 0.00 0.00 0.00 54 1022.8
20260902004536 67 277 2.0 6.0 0.00 0.00 0.00 55 1022.9
20260902004507 67 276 2.0 6.0 0.00 0.00 0.00 55 1022.9
20260902004308 67 274 1.0 5.0 0.00 0.00 0.00 57 1023.0
20260902003536 68 277 2.0 5.0 0.00 0.00 0.00 55 1023.0
20260902003507 68 278 2.0 5.0 0.00 0.00 0.00 55 1023.0
20260902003035 68 273 2.0 6.0 0.00 0.00 0.00 55 1023.0
20260902002507 68 282 2.0 6.0 0.00 0.00 0.00 55 1023.1
20260902002036 68 291 2.0 6.0 0.00 0.00 0.00 55 1023.0
20260902001507 69 285 2.0 6.0 0.00 0.00 0.00 54 1023.1
20260902001036 69 278 2.0 6.0 0.00 0.00 0.00 54 1023.1
20260902000508 69 277 2.0 6.0 0.00 0.00 0.00 53 1023.2
20260902000036 69 279 2.0 6.0 0.00 0.00 0.00 54 1023.3
20260901235506 69 286 2.0 6.0 0.00 0.00 0.00 53 1023.1
20260901235308 69 290 2.0 9.0 0.00 0.00 0.00 54 1023.2
20260901234507 69 282 2.0 9.0 0.00 0.00 0.00 54 1023.2
20260901234036 70 270 3.0 12.0 0.00 0.00 0.00 53 1023.2
20260901233536 70 267 4.0 12.0 0.00 0.00 0.00 52 1023.2
20260901233506 70 266 4.0 12.0 0.00 0.00 0.00 52 1023.2
20260901233036 70 261 5.0 12.0 0.00 0.00 0.00 52 1023.2
20260901232535 71 261 6.0 12.0 0.00 0.00 0.00 51 1023.3
20260901232506 71 263 5.0 12.0 0.00 0.00 0.00 51 1023.3
20260901232036 71 268 5.0 11.0 0.00 0.00 0.00 51 1023.3
20260901231537 71 271 4.0 11.0 0.00 0.00 0.00 51 1023.3
20260901231508 71 269 4.0 11.0 0.00 0.00 0.00 51 1023.3
20260901231037 71 276 3.0 11.0 0.00 0.00 0.00 51 1023.2
20260901230537 71 276 4.0 11.0 0.00 0.00 0.00 51 1023.2
20260901230509 71 277 4.0 11.0 0.00 0.00 0.00 51 1023.3
20260901230037 71 279 4.0 11.0 0.00 0.00 0.00 51 1023.3
20260901225537 71 275 4.0 9.0 0.00 0.00 0.00 51 1023.3
20260901225508 71 276 3.0 7.0 0.00 0.00 0.00 51 1023.3
20260901225036 71 302 2.0 7.0 0.00 0.00 0.00 52 1023.3
20260901224805 71 309 1.0 7.0 0.00 0.00 0.00 52 1023.2
20260901224507 71 309 1.0 7.0 0.00 0.00 0.00 53 1023.2
20260901224033 71 293 1.0 7.0 0.00 0.00 0.00 53 1023.1
20260901223510 71 283 2.0 7.0 0.00 0.00 0.00 53 1023.1
20260901223034 71 273 2.0 7.0 0.00 0.00 0.00 52 1023.0
20260901222534 71 271 3.0 9.0 0.00 0.00 0.00 52 1023.1
20260901222506 71 270 3.0 9.0 0.00 0.00 0.00 52 1023.1
20260901222307 71 269 3.0 9.0 0.00 0.00 0.00 52 1023.0
20260901221801 71 272 3.0 9.0 0.00 0.00 0.00 52 1023.0
20260901221507 72 272 3.0 9.0 0.00 0.00 0.00 52 1023.1
20260901221031 72 267 3.0 9.0 0.00 0.00 0.00 53 1023.0
20260901220531 72 263 4.0 9.0 0.00 0.00 0.00 51 1023.0
20260901220507 72 264 4.0 9.0 0.00 0.00 0.00 51 1023.0
20260901220031 72 266 4.0 9.0 0.00 0.00 0.00 51 1023.0
20260901215531 72 275 4.0 9.0 0.00 0.00 0.00 52 1023.0
20260901215510 72 276 4.0 9.0 0.00 0.00 0.00 52 1023.0
20260901215030 72 288 3.0 9.0 0.00 0.00 0.00 52 1023.1
20260901214532 72 288 2.0 8.0 0.00 0.00 0.00 53 1023.0
20260901214508 72 287 2.0 8.0 0.00 0.00 0.00 53 1023.0
20260901214301 72 276 3.0 8.0 0.00 0.00 0.00 53 1022.9
20260901213800 72 276 2.0 7.0 0.00 0.00 0.00 52 1023.0
20260901213509 72 276 2.0 7.0 0.00 0.00 0.00 52 1023.0
20260901213031 73 277 2.0 7.0 0.00 0.00 0.00 51 1023.0
20260901212531 73 271 2.0 7.0 0.00 0.00 0.00 51 1023.0
20260901212508 73 269 2.0 7.0 0.00 0.00 0.00 51 1023.0
20260901212032 73 247 2.0 6.0 0.00 0.00 0.00 51 1022.9
20260901211808 73 272 2.0 7.0 0.00 0.00 0.00 51 1023.0
20260901211507 73 270 2.0 7.0 0.00 0.00 0.00 51 1023.0
20260901211038 73 260 2.0 10.0 0.00 0.00 0.00 51 1022.8
20260901211032 73 269 2.0 10.0 0.00 0.00 0.00 51 1022.9
20260901210506 73 263 2.0 10.0 0.00 0.00 0.00 51 1022.8
20260901210300 73 290 2.0 10.0 0.00 0.00 0.00 52 1022.9
20260901205506 73 314 1.0 10.0 0.00 0.00 0.00 52 1023.0
20260901205026 72 296 0.0 5.0 0.00 0.00 0.00 53 1023.0
20260901204532 73 280 1.0 5.0 0.00 0.00 0.00 54 1022.9
20260901204507 73 279 1.0 5.0 0.00 0.00 0.00 54 1022.9
20260901204026 73 294 1.0 5.0 0.00 0.00 0.00 53 1022.9
20260901203526 73 298 1.0 10.0 0.00 0.00 0.00 52 1022.8
20260901203508 73 299 1.0 10.0 0.00 0.00 0.00 52 1022.8
20260901203026 73 279 1.0 10.0 0.00 0.00 0.00 52 1022.8
20260901202526 74 266 3.0 10.0 0.00 0.00 0.00 52 1022.9
20260901202507 74 265 3.0 10.0 0.00 0.00 0.00 52 1022.9
20260901202026 74 274 3.0 10.0 0.00 0.00 0.00 51 1022.9
20260901201526 73 306 1.0 8.0 0.00 0.00 0.00 53 1022.9
20260901201506 73 308 1.0 8.0 0.00 0.00 0.00 53 1022.9
20260901201026 73 305 1.0 4.0 0.00 0.00 0.00 53 1022.8
20260901200527 73 274 2.0 4.0 0.00 0.00 0.00 53 1022.7
20260901200507 73 271 2.0 4.0 0.00 0.00 0.00 53 1022.7
20260901200300 73 255 2.0 4.0 0.00 0.00 0.00 54 1022.9
20260901195527 73 263 1.0 4.0 0.00 0.00 0.00 55 1022.7
20260901195507 73 265 0.0 4.0 0.00 0.00 0.00 55 1022.7
20260901195027 74 279 0.0 4.0 0.00 0.00 0.00 52 1022.8
20260901194527 74 271 1.0 3.0 0.00 0.00 0.00 52 1022.7
20260901194504 74 271 1.0 3.0 0.00 0.00 0.00 53 1022.7
20260901194026 74 273 1.0 3.0 0.00 0.00 0.00 53 1022.6
20260901193526 74 282 0.0 5.0 0.00 0.00 0.00 52 1022.7
20260901193505 74 281 0.0 5.0 0.00 0.00 0.00 52 1022.7
20260901193027 74 280 0.0 5.0 0.00 0.00 0.00 51 1022.7
20260901192525 74 273 1.0 5.0 0.00 0.00 0.00 51 1022.7
20260901192503 74 274 1.0 5.0 0.00 0.00 0.00 51 1022.7
20260901192026 74 288 1.0 5.0 0.00 0.00 0.00 51 1022.6
20260901191526 73 86 0.0 1.0 0.00 0.00 0.00 53 1022.4
20260901191503 73 86 0.0 1.0 0.00 0.00 0.00 54 1022.4
20260901191026 74 87 0.0 0.0 0.00 0.00 0.00 54 1022.4
20260901190503 74 87 0.0 0.0 0.00 0.00 0.00 53 1022.1
20260901190026 74 86 0.0 0.0 0.00 0.00 0.00 54 1022.1
20260901185801 74 86 0.0 0.0 0.00 0.00 0.00 53 1022.1
20260901185505 74 86 0.0 0.0 0.00 0.00 0.00 53 1022.1
20260901185026 74 85 0.0 0.0 0.00 0.00 0.00 52 1022.1
20260901184503 75 85 0.0 0.0 0.00 0.00 0.00 52 1022.0
20260901184025 75 86 0.0 0.0 0.00 0.00 0.00 52 1021.9
20260901183526 75 85 0.0 0.0 0.00 0.00 0.00 52 1021.7
20260901183505 75 85 0.0 0.0 0.00 0.00 0.00 52 1021.8
20260901183258 75 85 0.0 1.0 0.00 0.00 0.00 51 1021.7
20260901182758 76 107 0.0 1.0 0.00 0.00 0.00 50 1021.7
20260901182502 76 110 0.0 1.0 0.00 0.00 0.00 50 1021.8
20260901182027 76 137 0.0 1.0 0.00 0.00 0.00 50 1021.7
20260901181503 77 142 0.0 1.0 0.00 0.00 0.00 48 1021.7
20260901181027 77 142 0.0 1.0 0.00 0.00 0.00 47 1021.7
20260901180526 78 142 0.0 1.0 0.00 0.00 0.00 47 1021.6
20260901180501 78 142 0.0 1.0 0.00 0.00 0.00 48 1021.6
20260901180026 78 143 0.0 1.0 0.00 0.00 0.00 46 1021.7
20260901175525 79 160 0.0 1.0 0.00 0.00 0.00 46 1021.7
20260901175504 78 164 0.0 1.0 0.00 0.00 0.00 46 1021.7
20260901175026 79 230 0.0 2.0 0.00 0.00 0.00 44 1021.5
20260901174525 80 278 0.0 2.0 0.00 0.00 0.00 44 1021.5
20260901174502 80 276 0.0 2.0 0.00 0.00 0.00 44 1021.5
20260901174027 80 283 0.0 4.0 0.00 0.00 0.00 44 1021.4
20260901173526 80 110 1.0 4.0 0.00 0.00 0.00 44 1021.4
20260901173504 80 108 1.0 4.0 0.00 0.00 0.00 44 1021.4
20260901173026 80 87 1.0 4.0 0.00 0.00 0.00 44 1021.2
20260901172538 81 140 0.0 5.0 0.00 0.00 0.00 41 1021.2
20260901172531 80 84 0.0 4.0 0.00 0.00 0.00 43 1021.2
20260901172526 80 85 0.0 4.0 0.00 0.00 0.00 43 1021.2
20260901171522 82 171 0.0 5.0 0.00 0.00 0.00 41 1021.3
20260901171503 82 170 0.0 5.0 0.00 0.00 0.00 41 1021.3
20260901171022 82 156 1.0 5.0 0.00 0.00 0.00 41 1021.2
20260901170522 82 139 2.0 5.0 0.00 0.00 0.00 40 1021.0
20260901170502 82 140 2.0 5.0 0.00 0.00 0.00 40 1021.0
20260901170023 83 142 1.0 5.0 0.00 0.00 0.00 38 1021.1
20260901165522 83 111 1.0 6.0 0.00 0.00 0.00 38 1021.1
20260901165502 83 89 2.0 6.0 0.00 0.00 0.00 38 1021.1
20260901165022 84 244 1.0 6.0 0.00 0.00 0.00 37 1021.1
20260901164521 84 163 1.0 6.0 0.00 0.00 0.00 37 1021.2
20260901164502 84 161 1.0 6.0 0.00 0.00 0.00 38 1021.2
20260901164021 84 64 2.0 6.0 0.00 0.00 0.00 38 1021.1
20260901163521 85 72 1.0 5.0 0.00 0.00 0.00 38 1021.2
20260901163502 85 67 1.0 4.0 0.00 0.00 0.00 38 1021.2
20260901163022 85 308 1.0 7.0 0.00 0.00 0.00 37 1021.1
20260901162503 85 309 1.0 7.0 0.00 0.00 0.00 37 1021.0
20260901162020 85 298 1.0 7.0 0.00 0.00 0.00 37 1021.1
20260901161753 85 280 2.0 7.0 0.00 0.00 0.00 37 1021.0
20260901161502 85 276 2.0 7.0 0.00 0.00 0.00 37 1021.0
20260901161017 85 149 2.0 6.0 0.00 0.00 0.00 36 1021.1
20260901160517 85 133 2.0 8.0 0.00 0.00 0.00 36 1021.2
20260901160501 85 131 2.0 8.0 0.00 0.00 0.00 36 1021.2
20260901160018 85 98 2.0 8.0 0.00 0.00 0.00 36 1021.2
20260901155516 85 107 2.0 8.0 0.00 0.00 0.00 36 1021.1
20260901155501 85 113 2.0 8.0 0.00 0.00 0.00 36 1021.1
20260901155016 85 305 2.0 8.0 0.00 0.00 0.00 36 1021.1
20260901154516 84 323 2.0 8.0 0.00 0.00 0.00 37 1021.1
20260901154457 84 325 3.0 8.0 0.00 0.00 0.00 36 1021.1
20260901154016 85 349 3.0 8.0 0.00 0.00 0.00 36 1021.0
20260901153516 85 88 4.0 8.0 0.00 0.00 0.00 36 1021.0
20260901153458 85 90 3.0 8.0 0.00 0.00 0.00 36 1021.0
20260901153016 86 132 3.0 9.0 0.00 0.00 0.00 34 1021.1
20260901152516 86 206 2.0 9.0 0.00 0.00 0.00 34 1021.0
20260901152458 86 214 2.0 9.0 0.00 0.00 0.00 34 1021.0
20260901152016 86 133 3.0 9.0 0.00 0.00 0.00 34 1021.0
20260901151515 85 107 4.0 9.0 0.00 0.00 0.00 34 1020.9
20260901151459 85 106 4.0 9.0 0.00 0.00 0.00 34 1020.9
20260901151016 85 71 3.0 9.0 0.00 0.00 0.00 35 1020.9
20260901150516 85 65 3.0 8.0 0.00 0.00 0.00 35 1021.0
20260901150458 85 66 3.0 8.0 0.00 0.00 0.00 35 1021.0
20260901150016 86 338 2.0 7.0 0.00 0.00 0.00 34 1021.0
20260901145516 86 319 2.0 12.0 0.00 0.00 0.00 34 1021.0
20260901145456 86 317 2.0 12.0 0.00 0.00 0.00 34 1021.0
20260901145015 86 42 2.0 12.0 0.00 0.00 0.00 34 1021.1
20260901144518 86 145 3.0 12.0 0.00 0.00 0.00 34 1021.1
20260901144457 86 145 3.0 12.0 0.00 0.00 0.00 34 1021.1
20260901144248 86 164 3.0 12.0 0.00 0.00 0.00 34 1021.0
20260901143516 86 11 3.0 16.0 0.00 0.00 0.00 34 1021.1
20260901143457 86 11 3.0 16.0 0.00 0.00 0.00 34 1021.1
20260901143015 86 35 3.0 16.0 0.00 0.00 0.00 34 1021.0
20260901142515 85 1 3.0 16.0 0.00 0.00 0.00 34 1021.0
20260901142457 86 1 3.0 16.0 0.00 0.00 0.00 34 1021.0
20260901142016 86 351 3.0 16.0 0.00 0.00 0.00 34 1021.0
20260901141516 87 164 3.0 9.0 0.00 0.00 0.00 33 1021.1
20260901141457 87 172 2.0 9.0 0.00 0.00 0.00 33 1021.1
20260901141016 87 106 3.0 9.0 0.00 0.00 0.00 33 1021.2
20260901140516 86 39 2.0 9.0 0.00 0.00 0.00 33 1021.1
20260901140457 86 30 3.0 9.0 0.00 0.00 0.00 33 1021.1
20260901140016 86 35 2.0 9.0 0.00 0.00 0.00 33 1021.1
20260901135750 86 352 3.0 12.0 0.00 0.00 0.00 33 1021.2
20260901135458 86 358 3.0 12.0 0.00 0.00 0.00 33 1021.2
20260901135025 86 278 3.0 13.0 0.00 0.00 0.00 33 1021.1
20260901135019 86 323 2.0 12.0 0.00 0.00 0.00 33 1021.1
20260901134458 86 269 3.0 13.0 0.00 0.00 0.00 33 1021.1
20260901134015 86 67 3.0 13.0 0.00 0.00 0.00 33 1020.9
20260901133516 86 62 4.0 13.0 0.00 0.00 0.00 33 1021.1
20260901133456 86 62 4.0 13.0 0.00 0.00 0.00 33 1021.1
20260901133018 86 92 3.0 13.0 0.00 0.00 0.00 33 1021.0
20260901132745 87 112 2.0 12.0 0.00 0.00 0.00 33 1021.0
20260901132456 87 121 2.0 12.0 0.00 0.00 0.00 33 1021.0
20260901132011 86 264 3.0 12.0 0.00 0.00 0.00 33 1021.0
20260901131511 86 347 3.0 9.0 0.00 0.00 0.00 33 1021.0
20260901131457 86 349 3.0 9.0 0.00 0.00 0.00 33 1021.0
20260901131244 86 60 4.0 8.0 0.00 0.00 0.00 33 1021.0
20260901130512 86 186 3.0 8.0 0.00 0.00 0.00 33 1021.0
20260901130456 86 195 3.0 8.0 0.00 0.00 0.00 33 1021.0
20260901130011 86 322 2.0 8.0 0.00 0.00 0.00 33 1021.2
20260901125511 87 335 3.0 8.0 0.00 0.00 0.00 33 1021.1
20260901125457 87 340 3.0 8.0 0.00 0.00 0.00 33 1021.1
20260901125009 87 189 3.0 8.0 0.00 0.00 0.00 33 1021.2
20260901124508 87 190 3.0 8.0 0.00 0.00 0.00 34 1021.2
20260901124458 87 191 3.0 8.0 0.00 0.00 0.00 33 1021.2
20260901124008 86 197 3.0 10.0 0.00 0.00 0.00 33 1021.0
20260901123508 86 42 3.0 12.0 0.00 0.00 0.00 34 1021.1
20260901123458 86 28 3.0 12.0 0.00 0.00 0.00 34 1021.1
20260901123007 85 270 3.0 12.0 0.00 0.00 0.00 34 1021.1
20260901122506 85 211 3.0 12.0 0.00 0.00 0.00 34 1021.0
20260901122459 85 209 3.0 12.0 0.00 0.00 0.00 34 1021.0
20260901122006 86 203 3.0 12.0 0.00 0.00 0.00 33 1021.1
20260901121736 85 234 2.0 10.0 0.00 0.00 0.00 34 1021.0
20260901121456 85 233 2.0 10.0 0.00 0.00 0.00 34 1021.0
20260901121003 85 117 2.0 12.0 0.00 0.00 0.00 34 1020.9
20260901120737 85 205 3.0 12.0 0.00 0.00 0.00 34 1021.1
20260901120457 85 211 3.0 12.0 0.00 0.00 0.00 34 1021.1
20260901120005 85 286 4.0 12.0 0.00 0.00 0.00 36 1020.9
20260901115503 84 292 4.0 12.0 0.00 0.00 0.00 35 1021.0
20260901115457 84 289 4.0 12.0 0.00 0.00 0.00 35 1021.0
20260901115004 85 233 3.0 12.0 0.00 0.00 0.00 35 1021.0
20260901114504 85 286 3.0 14.0 0.00 0.00 0.00 34 1021.1
20260901114457 85 295 3.0 14.0 0.00 0.00 0.00 34 1021.1
20260901114005 84 254 4.0 14.0 0.00 0.00 0.00 35 1020.9
20260901113504 83 241 5.0 14.0 0.00 0.00 0.00 35 1020.9
20260901113457 83 241 5.0 14.0 0.00 0.00 0.00 36 1020.9
20260901113004 83 251 4.0 14.0 0.00 0.00 0.00 34 1021.1
20260901112504 83 280 3.0 14.0 0.00 0.00 0.00 35 1021.1
20260901112457 83 279 3.0 14.0 0.00 0.00 0.00 35 1021.1
20260901112004 82 259 4.0 14.0 0.00 0.00 0.00 36 1020.9
20260901111504 82 239 5.0 14.0 0.00 0.00 0.00 36 1021.0
20260901111457 82 237 4.0 14.0 0.00 0.00 0.00 36 1021.0
20260901111004 82 198 5.0 14.0 0.00 0.00 0.00 35 1021.2
20260901110503 82 213 5.0 11.0 0.00 0.00 0.00 36 1021.2
20260901110457 82 212 5.0 11.0 0.00 0.00 0.00 36 1021.2
20260901110003 82 263 5.0 11.0 0.00 0.00 0.00 37 1021.2
20260901105504 81 287 5.0 11.0 0.00 0.00 0.00 37 1021.2
20260901105457 81 287 5.0 11.0 0.00 0.00 0.00 37 1021.2
20260901105002 82 295 4.0 11.0 0.00 0.00 0.00 36 1021.2
20260901104508 82 277 4.0 10.0 0.00 0.00 0.00 36 1021.5
20260901104459 82 277 4.0 10.0 0.00 0.00 0.00 36 1021.5
20260901104002 82 259 4.0 14.0 0.00 0.00 0.00 36 1021.1
20260901103503 82 256 5.0 14.0 0.00 0.00 0.00 35 1021.4
20260901103458 82 258 5.0 14.0 0.00 0.00 0.00 35 1021.4
20260901103002 81 262 5.0 14.0 0.00 0.00 0.00 34 1021.3
20260901102502 81 265 4.0 14.0 0.00 0.00 0.00 34 1021.4
20260901102456 81 265 4.0 14.0 0.00 0.00 0.00 34 1021.4
20260901102002 81 239 4.0 12.0 0.00 0.00 0.00 33 1021.5
20260901101502 82 240 3.0 13.0 0.00 0.00 0.00 32 1021.5
20260901101458 82 239 3.0 13.0 0.00 0.00 0.00 32 1021.5
20260901101002 82 238 3.0 13.0 0.00 0.00 0.00 30 1021.3
20260901100502 82 234 3.0 13.0 0.00 0.00 0.00 30 1021.6
20260901100457 82 234 3.0 13.0 0.00 0.00 0.00 30 1021.6
20260901100001 81 318 3.0 13.0 0.00 0.00 0.00 31 1021.5
20260901095514 80 89 2.0 9.0 0.00 0.00 0.00 31 1021.5
20260901095508 81 0 3.0 9.0 0.00 0.00 0.00 31 1021.6
20260901095503 81 5 3.0 9.0 0.00 0.00 0.00 31 1021.6
20260901094500 80 68 2.0 9.0 0.00 0.00 0.00 31 1021.5
20260901094456 80 67 2.0 9.0 0.00 0.00 0.00 31 1021.5
20260901094001 80 65 2.0 6.0 0.00 0.00 0.00 30 1021.4
20260901093501 80 87 2.0 6.0 0.00 0.00 0.00 30 1021.5
20260901093457 80 87 2.0 6.0 0.00 0.00 0.00 30 1021.5
20260901093004 81 191 1.0 5.0 0.00 0.00 0.00 30 1021.7
20260901092501 81 212 1.0 4.0 0.00 0.00 0.00 27 1021.6
20260901092457 81 212 1.0 4.0 0.00 0.00 0.00 27 1021.6
20260901091959 81 199 1.0 4.0 0.00 0.00 0.00 26 1021.5
20260901091457 80 224 1.0 4.0 0.00 0.00 0.00 26 1021.6
20260901090957 80 238 1.0 4.0 0.00 0.00 0.00 26 1021.6
20260901090458 79 233 2.0 4.0 0.00 0.00 0.00 26 1021.6
20260901085958 79 238 1.0 4.0 0.00 0.00 0.00 26 1021.5
20260901085458 78 239 1.0 4.0 0.00 0.00 0.00 26 1021.5
20260901084956 79 240 1.0 4.0 0.00 0.00 0.00 26 1021.5
20260901084458 78 249 1.0 3.0 0.00 0.00 0.00 27 1021.4
20260901083956 78 244 1.0 4.0 0.00 0.00 0.00 27 1021.5
20260901083457 77 234 1.0 4.0 0.00 0.00 0.00 28 1021.5
20260901082956 77 233 2.0 5.0 0.00 0.00 0.00 28 1021.5
20260901082458 76 231 2.0 6.0 0.00 0.00 0.00 28 1021.4
20260901081956 76 227 2.0 6.0 0.00 0.00 0.00 29 1021.4
20260901081459 75 230 3.0 6.0 0.00 0.00 0.00 31 1021.3
20260901080956 75 233 3.0 7.0 0.00 0.00 0.00 32 1021.3
20260901080457 74 232 3.0 7.0 0.00 0.00 0.00 33 1021.2
20260901075956 74 228 3.0 7.0 0.00 0.00 0.00 33 1021.2
20260901075457 74 230 3.0 7.0 0.00 0.00 0.00 32 1021.1
20260901074957 73 231 3.0 9.0 0.00 0.00 0.00 33 1021.2
20260901074457 73 234 4.0 10.0 0.00 0.00 0.00 33 1021.1
20260901074224 72 240 4.0 10.0 0.00 0.00 0.00 34 1021.1
20260901073458 72 240 4.0 10.0 0.00 0.00 0.00 33 1021.2
20260901073229 71 236 4.0 10.0 0.00 0.00 0.00 34 1021.0
20260901072457 71 233 4.0 8.0 0.00 0.00 0.00 36 1021.0
20260901072231 71 241 4.0 8.0 0.00 0.00 0.00 36 1020.9
20260901071457 71 245 4.0 8.0 0.00 0.00 0.00 36 1021.1
20260901070958 70 240 4.0 8.0 0.00 0.00 0.00 36 1021.0
20260901070458 70 242 4.0 7.0 0.00 0.00 0.00 38 1021.0
20260901065951 69 243 3.0 7.0 0.00 0.00 0.00 37 1021.0
20260901065452 69 239 3.0 6.0 0.00 0.00 0.00 38 1021.0
20260901064954 69 243 3.0 6.0 0.00 0.00 0.00 39 1021.0
20260901064452 69 245 3.0 7.0 0.00 0.00 0.00 38 1020.9
20260901064225 69 248 3.0 8.0 0.00 0.00 0.00 37 1021.0
20260901063452 68 240 3.0 8.0 0.00 0.00 0.00 37 1021.1